This is the latest recevied weather packets stored in our database for station/object DD3UTS-13. If no packets are shown the sender has not sent any weather packets the latest 10 day(s).
| Time | Temp. | Humidity | Pressure | Rain* | Wind** | Luminosity | Snow |
|---|---|---|---|---|---|---|---|
| 1777535132 | 10.56° C | 36% | 1030.4 hPa | 0 mm | - | 473 W/m² | - |
| 1777534832 | 11.11° C | 38% | 1030.5 hPa | 0 mm | - | 466 W/m² | - |
| 1777534532 | 11.11° C | 38% | 1030.4 hPa | 0 mm | - | 466 W/m² | - |
| 1777534232 | 10.56° C | 37% | 1030.4 hPa | 0 mm | - | 460 W/m² | - |
| 1777533931 | 10.56° C | 37% | 1030.3 hPa | 0 mm | - | 459 W/m² | - |
| 1777533631 | 10.56° C | 38% | 1030.4 hPa | 0 mm | - | 454 W/m² | - |
| 1777533332 | 10.56° C | 38% | 1030.4 hPa | 0 mm | - | 447 W/m² | - |
| 1777533032 | 10.56° C | 38% | 1030.4 hPa | 0 mm | - | 441 W/m² | - |
| 1777532732 | 10° C | 39% | 1030.4 hPa | 0 mm | - | 435 W/m² | - |
| 1777532432 | 10° C | 39% | 1030.4 hPa | 0 mm | - | 427 W/m² | - |
| 1777532132 | 9.44° C | 40% | 1030.4 hPa | 0 mm | - | 418 W/m² | - |
| 1777531832 | 9.44° C | 40% | 1030.3 hPa | 0 mm | - | 409 W/m² | - |
| 1777531532 | 9.44° C | 40% | 1030.2 hPa | 0 mm | - | 402 W/m² | - |
| 1777531231 | 8.89° C | 40% | 1030.2 hPa | 0 mm | - | 392 W/m² | - |
| 1777530931 | 8.89° C | 42% | 1030.3 hPa | 0 mm | - | 384 W/m² | - |
| 1777530632 | 9.44° C | 43% | 1030.2 hPa | 0 mm | - | 380 W/m² | - |
| 1777530332 | 8.89° C | 46% | 1030.3 hPa | 0 mm | - | 380 W/m² | - |
| 1777530032 | 7.78° C | 48% | 1030.2 hPa | 0 mm | - | 378 W/m² | - |
| 1777529732 | 6.11° C | 50% | 1030.2 hPa | 0 mm | - | 373 W/m² | - |
| 1777529432 | 5.56° C | 50% | 1030.1 hPa | 0 mm | - | 370 W/m² | - |
| 1777529132 | 5° C | 52% | 1030.1 hPa | 0 mm | - | 366 W/m² | - |
| 1777528832 | 4.44° C | 53% | 1030 hPa | 0 mm | - | 132 W/m² | - |
| 1777528532 | 4.44° C | 53% | 1030 hPa | 0 mm | - | 125 W/m² | - |
| 1777528231 | 4.44° C | 54% | 1029.9 hPa | 0 mm | - | 121 W/m² | - |
| 1777527932 | 4.44° C | 55% | 1029.8 hPa | 0 mm | - | 113 W/m² | - |
* Rain latest 24 hours (hover to see other rain measurements)
** Current wind speed in m/s (hover to see current wind gust speed)